Weather in Yemash-Pavlovo

Russia / Perm Krai     56°19′25″N   56°05′41″E
temp.,
°C
wind,
m/s
gust,
m/s
humid.,
%
clouds,
%
prec.,
mm/h
press.,
hPa
HPBL,
m
7 march, sun
sun723:00−17wsw239440 0.0 101220
02:00−16ssw239798 0.1 101233
05:00−17sw229799 0.2 101126
08:00−19sw2210090 0.1 101020
11:00−14sw239292 0.1 1010247
14:00−11wsw3386100 0.1 1009550
17:00−11wsw3488100 0.1 1009573
20:00−16sw339765 0.0 100921
8 march, mon
mon823:00−18ssw339970 0.0 101021
02:00−18s3410068 0.0 100860
05:00−16sse5109684 0.1 1006271
08:00−13s61395100 0.5 1002589
11:00−9s81493100 1.4 999804
14:00−5s91492100 1.0 9971001
17:00−4wsw101678100 2.2 9961213
20:00−6sw8158995 0.3 9971191
9 march, tue
tue923:00−8sw9168697 0.4 1000869
02:00−10sw71392100 0.1 1002485
05:00−14ssw479697 0.1 100394
08:00−14s2396100 0.0 100331
11:00−8se2394100 0.3 1002248
14:00−7wnw4691100 2.1 1003628
17:00−6w578797 2.3 1006827
20:00−11wsw469599 0.1 1007126
10 march, wed
wed1023:00−14w239796 0.2 100925
02:00−17nnw119970 0.0 100820
05:00−18nne479685 0.1 1009159
08:00−22nne489693 0.1 1010158
11:00−20n479389 0.1 1010292
14:00−16nnw468760 0.0 1011496
17:00−16nnw568880 0.0 1012483
20:00−22nnw479021 0.0 1014127
11 march, thu
thu1123:00−26nnw339111 0.0 101621
02:00−27wnw23940 0.0 101619
05:00−28w23981 0.0 101821
08:00−28sw359875 0.0 101892
11:00−23sw579788 0.1 1017309
14:00−19sw6995100 0.1 1018445
17:00−18wsw6993100 0.3 1018566
20:00−18wsw5995100 0.1 1019383